• In Russia
  • List of Countries
  • For 7 days
  • Water Temperature
  • Weather Map
  • Weather Widgets
  • user-avatar
    Login

    Hourly Weather Lowiczowka

    Today, 27 February, Thursday

    Time Temperature Precipitation Wind Pressure Humidity
    00:00 0°C° 0.2 mm 5 mps 739 mmHg 90%
    01:00 0°C° 0 mm 5 mps 739 mmHg 88%
    02:00 0°C° 0 mm 5 mps 740 mmHg 88%
    03:00 -1°C° 0 mm 6 mps 740 mmHg 89%
    04:00 -2°C° 0 mm 6 mps 740 mmHg 89%
    05:00 -2°C° 0 mm 6 mps 740 mmHg 88%
    06:00 -2°C° 0 mm 6 mps 741 mmHg 87%
    07:00 -1°C° 0 mm 5 mps 741 mmHg 86%
    08:00 -2°C° 0 mm 6 mps 741 mmHg 83%
    09:00 -1°C° 0 mm 6 mps 742 mmHg 81%
    10:00 -1°C° 0 mm 6 mps 742 mmHg 78%
    11:00 -1°C° 0 mm 6 mps 742 mmHg 75%
    12:00 +1°C° 0 mm 6 mps 742 mmHg 71%
    13:00 +1°C° 0 mm 6 mps 742 mmHg 68%
    14:00 +1°C° 0 mm 6 mps 742 mmHg 68%
    15:00 +1°C° 0 mm 5 mps 742 mmHg 68%
    16:00 +3°C° 0 mm 4 mps 742 mmHg 69%
    17:00 +2°C° 0 mm 3 mps 741 mmHg 73%
    18:00 +1°C° 0 mm 3 mps 741 mmHg 78%
    19:00 +1°C° 0 mm 2 mps 741 mmHg 82%
    20:00 +1°C° 0 mm 2 mps 741 mmHg 84%
    21:00 +1°C° 0 mm 2 mps 741 mmHg 85%
    22:00 +1°C° 0 mm 2 mps 741 mmHg 86%
    23:00 -1°C° 0 mm 2 mps 741 mmHg 86%

    Tomorrow, 28 February, Friday

    Time Temperature Precipitation Wind Pressure Humidity
    00:00 +1°C° 0 mm 1 mps 741 mmHg 86%
    01:00 +1°C° 0 mm 1 mps 742 mmHg 86%
    02:00 +1°C° 0 mm 1 mps 742 mmHg 85%
    03:00 +1°C° 0 mm 1 mps 742 mmHg 85%
    04:00 0°C° 0 mm 0 mps 742 mmHg 84%
    05:00 +2°C° 0 mm 1 mps 743 mmHg 84%
    06:00 +2°C° 0 mm 1 mps 743 mmHg 84%
    07:00 +2°C° 0 mm 1 mps 744 mmHg 84%
    08:00 +1°C° 0 mm 2 mps 745 mmHg 83%
    09:00 +1°C° 0 mm 3 mps 745 mmHg 83%
    10:00 +1°C° 0 mm 4 mps 746 mmHg 83%
    11:00 +1°C° 0.1 mm 4 mps 746 mmHg 77%
    12:00 +2°C° 0.1 mm 5 mps 747 mmHg 71%
    13:00 +3°C° 0.1 mm 5 mps 747 mmHg 66%
    14:00 +3°C° 0 mm 5 mps 748 mmHg 66%
    15:00 +3°C° 0 mm 5 mps 748 mmHg 65%
    16:00 +3°C° 0 mm 6 mps 749 mmHg 65%
    17:00 +2°C° 0 mm 5 mps 749 mmHg 69%
    18:00 +1°C° 0 mm 5 mps 749 mmHg 74%
    19:00 0°C° 0 mm 4 mps 750 mmHg 78%
    20:00 0°C° 0 mm 4 mps 750 mmHg 79%
    21:00 -1°C° 0 mm 4 mps 750 mmHg 81%
    22:00 -1°C° 0 mm 4 mps 750 mmHg 82%
    23:00 -1°C° 0 mm 4 mps 751 mmHg 84%

    Day after tomorrow, 29 February, Saturday

    Time Temperature Precipitation Wind Pressure Humidity
    00:00 -1°C° 0 mm 4 mps 751 mmHg 86%
    01:00 -1°C° 0 mm 4 mps 751 mmHg 88%
    02:00 -1°C° 0 mm 4 mps 751 mmHg 90%
    03:00 -2°C° 0 mm 4 mps 751 mmHg 91%
    04:00 -1°C° 0 mm 3 mps 750 mmHg 92%
    05:00 -1°C° 0 mm 3 mps 750 mmHg 91%
    06:00 -1°C° 0 mm 3 mps 750 mmHg 91%
    07:00 -1°C° 0 mm 3 mps 750 mmHg 90%
    08:00 0°C° 0 mm 4 mps 749 mmHg 82%
    09:00 +1°C° 0 mm 5 mps 749 mmHg 73%
    10:00 +2°C° 0 mm 5 mps 748 mmHg 64%
    11:00 +3°C° 0 mm 6 mps 748 mmHg 59%
    12:00 +4°C° 0 mm 6 mps 747 mmHg 55%
    13:00 +5°C° 0 mm 7 mps 746 mmHg 50%
    14:00 +5°C° 0 mm 6 mps 745 mmHg 51%
    15:00 +4°C° 0 mm 6 mps 745 mmHg 52%
    16:00 +4°C° 0 mm 6 mps 744 mmHg 53%
    17:00 +4°C° 0 mm 6 mps 744 mmHg 56%
    18:00 +4°C° 0 mm 6 mps 743 mmHg 59%
    19:00 +3°C° 0 mm 6 mps 743 mmHg 63%
    20:00 +3°C° 0 mm 6 mps 743 mmHg 63%
    21:00 +3°C° 0 mm 6 mps 743 mmHg 64%
    22:00 +3°C° 0 mm 6 mps 742 mmHg 65%
    23:00 +3°C° 0 mm 6 mps 742 mmHg 65%

    1 March, Sunday

    Time Temperature Precipitation Wind Pressure Humidity
    00:00 +3°C° 0 mm 6 mps 742 mmHg 65%
    01:00 +3°C° 0 mm 6 mps 742 mmHg 66%
    02:00 +3°C° 0.4 mm 6 mps 742 mmHg 71%
    03:00 +3°C° 0.4 mm 6 mps 742 mmHg 76%
    04:00 +3°C° 0.4 mm 6 mps 742 mmHg 81%
    05:00 +3°C° 0.1 mm 6 mps 742 mmHg 83%
    06:00 +3°C° 0.1 mm 5 mps 742 mmHg 85%
    07:00 +3°C° 0.1 mm 5 mps 742 mmHg 87%
    08:00 +5°C° 0 mm 5 mps 742 mmHg 82%
    09:00 +5°C° 0 mm 6 mps 742 mmHg 77%
    10:00 +5°C° 0 mm 6 mps 742 mmHg 72%
    11:00 +6°C° 0 mm 7 mps 742 mmHg 68%
    12:00 +8°C° 0 mm 7 mps 742 mmHg 64%
    13:00 +8°C° 0 mm 7 mps 742 mmHg 60%
    14:00 +8°C° 0.1 mm 7 mps 742 mmHg 59%
    15:00 +8°C° 0.1 mm 6 mps 741 mmHg 59%
    16:00 +8°C° 0.1 mm 6 mps 741 mmHg 58%
    17:00 +7°C° 0 mm 5 mps 741 mmHg 63%
    18:00 +6°C° 0 mm 5 mps 741 mmHg 68%
    19:00 +5°C° 0 mm 5 mps 742 mmHg 73%
    20:00 +5°C° 0 mm 5 mps 741 mmHg 75%
    21:00 +5°C° 0 mm 5 mps 741 mmHg 76%
    22:00 +3°C° 0 mm 5 mps 741 mmHg 78%
    23:00 +4°C° 0 mm 4 mps 741 mmHg 80%

    2 March, Monday

    Time Temperature Precipitation Wind Pressure Humidity
    00:00 +3°C° 0 mm 4 mps 741 mmHg 82%
    01:00 +3°C° 0 mm 3 mps 741 mmHg 85%
    02:00 +3°C° 0 mm 3 mps 740 mmHg 86%
    03:00 +2°C° 0 mm 3 mps 740 mmHg 87%
    04:00 +2°C° 0 mm 3 mps 739 mmHg 89%
    05:00 +2°C° 0 mm 3 mps 739 mmHg 89%
    06:00 +3°C° 0 mm 2 mps 739 mmHg 90%
    07:00 +3°C° 0 mm 2 mps 739 mmHg 90%
    08:00 +4°C° 0.1 mm 2 mps 738 mmHg 88%
    09:00 +5°C° 0.1 mm 2 mps 738 mmHg 85%
    10:00 +6°C° 0.1 mm 2 mps 738 mmHg 83%
    11:00 +5°C° 0.5 mm 2 mps 737 mmHg 86%
    12:00 +5°C° 0.5 mm 2 mps 737 mmHg 89%
    13:00 +5°C° 0.5 mm 2 mps 737 mmHg 91%
    14:00 +4°C° 0.4 mm 3 mps 737 mmHg 91%
    15:00 +4°C° 0.4 mm 3 mps 737 mmHg 91%
    16:00 +4°C° 0.4 mm 4 mps 737 mmHg 91%
    17:00 +4°C° 0.1 mm 4 mps 738 mmHg 89%
    18:00 +3°C° 0.1 mm 3 mps 738 mmHg 88%
    19:00 +2°C° 0.1 mm 3 mps 739 mmHg 86%
    20:00 +2°C° 0 mm 3 mps 740 mmHg 85%
    21:00 +2°C° 0 mm 3 mps 740 mmHg 84%
    22:00 +1°C° 0 mm 3 mps 741 mmHg 83%
    23:00 +1°C° 0 mm 3 mps 741 mmHg 83%

    3 March, Tuesday

    Time Temperature Precipitation Wind Pressure Humidity
    00:00 +1°C° 0 mm 3 mps 742 mmHg 83%
    01:00 +1°C° 0 mm 3 mps 742 mmHg 83%
    02:00 +1°C° 0 mm 3 mps 743 mmHg 84%
    03:00 0°C° 0 mm 3 mps 743 mmHg 85%
    04:00 0°C° 0 mm 3 mps 743 mmHg 86%
    05:00 0°C° 0 mm 3 mps 743 mmHg 85%
    06:00 0°C° 0 mm 3 mps 744 mmHg 85%
    07:00 0°C° 0 mm 3 mps 744 mmHg 85%
    08:00 +2°C° 0 mm 3 mps 744 mmHg 79%
    09:00 +4°C° 0 mm 3 mps 745 mmHg 73%
    10:00 +5°C° 0 mm 4 mps 745 mmHg 68%
    11:00 +6°C° 0 mm 4 mps 745 mmHg 64%
    12:00 +8°C° 0 mm 3 mps 745 mmHg 61%
    13:00 +9°C° 0 mm 3 mps 745 mmHg 58%
    14:00 +9°C° 0 mm 2 mps 745 mmHg 59%
    15:00 +10°C° 0 mm 1 mps 745 mmHg 60%
    16:00 +8°C° 0 mm 0 mps 745 mmHg 61%
    17:00 +9°C° 0 mm 1 mps 745 mmHg 64%
    18:00 +8°C° 0 mm 1 mps 745 mmHg 68%
    19:00 +7°C° 0 mm 1 mps 745 mmHg 71%
    20:00 +6°C° 0.1 mm 2 mps 745 mmHg 74%
    21:00 +6°C° 0.1 mm 2 mps 745 mmHg 78%
    22:00 +5°C° 0.1 mm 2 mps 745 mmHg 81%
    23:00 +5°C° 0.2 mm 2 mps 745 mmHg 85%
    Show more